Location: Berlise
(49.6641°N, 4.1077°E)
Time: 23:54:24
(UTC+00:00)

CZ-4B DEB - Pass Details

Date: 27 January 2021
Orbit: 840 x 861 km, 99.1° (Epoch: 01 March)

Event Time Altitude Azimuth Distance (km) Brightness Sun altitude
Rises 06:20:03 0° 13° (NNE) 3,453 7.4 -10.2°
Reaches altitude 10° 06:22:27 10° 11° (N) 2,512 6.6 -9.8°
Maximum altitude 06:27:59 66° 290° (WNW) 938 4.2 -9.0°
Drops below altitude 10° 06:33:28 10° 210° (SSW) 2,490 6.5 -8.1°
Sets 06:35:50 0° 207° (SSW) 3,421 7.3 -7.8°
